FW3683 Weather Reports


time (UTC)temp
C
wind
direction
speed
KPH
gust
KPH
rain 1hr
cm
rain 24hr
cm
rain mn
cm
humidity
%
barometer
mb
20260508210038 21 108 0.0 0.0 0.00 0.00 0.00 49 1018.8
20260508205537 20 68 0.0 0.0 0.00 0.00 0.00 50 1018.7
20260508205036 20 102 0.0 0.0 0.00 0.00 0.00 49 1018.7
20260508204536 20 104 0.0 0.0 0.00 0.00 0.00 49 1018.7
20260508204037 20 39 0.0 0.0 0.00 0.00 0.00 50 1018.9
20260508203535 20 65 0.0 0.0 0.00 0.00 0.00 49 1018.8
20260508203035 20 42 0.0 0.0 0.00 0.00 0.00 50 1018.8
20260508202534 21 131 0.0 0.0 0.00 0.00 0.00 48 1018.8
20260508202033 20 32 0.0 0.0 0.00 0.00 0.00 49 1018.8
20260508201635 20 51 0.0 0.0 0.00 0.00 0.00 51 1019.0
20260508201034 20 106 0.0 0.0 0.00 0.00 0.00 49 1019.1
20260508200533 20 41 0.0 0.0 0.00 0.00 0.00 48 1019.2
20260508200040 20 116 0.0 0.0 0.00 0.00 0.00 47 1019.2
20260508195533 21 182 0.0 0.0 0.00 0.00 0.00 50 1019.3
20260508195032 20 345 0.0 0.0 0.00 0.00 0.00 49 1019.2
20260508194532 20 54 0.0 0.0 0.00 0.00 0.00 49 1019.3
20260508194033 20 102 0.0 0.0 0.00 0.00 0.00 50 1019.5
20260508193530 20 191 0.0 0.0 0.00 0.00 0.00 48 1019.7
20260508193057 20 131 0.0 0.0 0.00 0.00 0.00 49 1019.8
20260508192529 20 79 0.0 0.0 0.00 0.00 0.00 46 1019.8
20260508192032 21 32 0.0 0.0 0.00 0.00 0.00 48 1019.8
20260508191628 20 351 0.0 0.0 0.00 0.00 0.00 50 1020.0
20260508191030 20 134 0.0 0.0 0.00 0.00 0.00 50 1020.0
20260508190531 20 60 0.0 0.0 0.00 0.00 0.00 47 1020.2
20260508190036 20 51 0.0 0.0 0.00 0.00 0.00 47 1020.5
20260508185529 20 4 0.0 0.0 0.00 0.00 0.00 48 1020.3
20260508185029 20 57 0.0 0.0 0.00 0.00 0.00 47 1020.3
20260508184528 21 195 0.0 0.0 0.00 0.00 0.00 45 1020.3
20260508184027 21 58 0.0 0.0 0.00 0.00 0.00 44 1020.5
20260508183525 20 92 0.0 0.0 0.00 0.00 0.00 45 1020.6
20260508183026 20 34 0.0 0.0 0.00 0.00 0.00 46 1020.7
20260508182526 20 117 0.0 0.0 0.00 0.00 0.00 43 1020.6
20260508182025 20 82 0.0 0.0 0.00 0.00 0.00 46 1020.6
20260508181625 20 58 0.0 0.0 0.00 0.00 0.00 46 1020.7
20260508181027 20 127 0.0 0.0 0.00 0.00 0.00 45 1020.7
20260508180522 20 62 0.0 0.0 0.00 0.00 0.00 49 1020.9
20260508180027 20 110 0.0 0.0 0.00 0.00 0.00 47 1021.0
20260508175521 20 84 0.0 0.0 0.00 0.00 0.00 44 1021.1
20260508175023 20 140 0.0 0.0 0.00 0.00 0.00 45 1021.2
20260508174530 20 93 0.0 0.0 0.00 0.00 0.00 44 1021.0
20260508174021 20 250 0.0 0.0 0.00 0.00 0.00 44 1021.0
20260508173519 20 160 0.0 0.0 0.00 0.00 0.00 45 1021.1
20260508173129 20 31 0.0 0.0 0.00 0.00 0.00 44 1021.0
20260508172516 20 99 0.0 0.0 0.00 0.00 0.00 45 1021.3
20260508172016 19 94 0.0 0.0 0.00 0.00 0.00 47 1021.5
20260508171629 19 72 0.0 0.0 0.00 0.00 0.00 46 1021.5
20260508171019 19 96 0.0 0.0 0.00 0.00 0.00 46 1021.5
20260508170516 20 320 0.0 0.0 0.00 0.00 0.00 46 1021.6
20260508170016 20 107 0.0 0.0 0.00 0.00 0.00 46 1021.9
20260508165513 19 221 0.0 0.0 0.00 0.00 0.00 48 1021.9
20260508165013 18 207 0.0 0.0 0.00 0.00 0.00 47 1022.0
20260508164512 18 127 0.0 0.0 0.00 0.00 0.00 49 1022.1
20260508164012 19 63 0.0 0.0 0.00 0.00 0.00 49 1022.3
20260508163512 19 65 0.0 0.0 0.00 0.00 0.00 46 1022.2
20260508163011 19 46 0.0 0.0 0.00 0.00 0.00 48 1022.2
20260508162510 19 61 0.0 0.0 0.00 0.00 0.00 50 1022.2
20260508162008 18 62 0.0 0.0 0.00 0.00 0.00 50 1022.6
20260508161608 18 129 0.0 0.0 0.00 0.00 0.00 52 1022.4
20260508161009 18 141 0.0 0.0 0.00 0.00 0.00 51 1022.5
20260508160510 18 98 0.0 0.0 0.00 0.00 0.00 50 1022.6
20260508160007 18 86 0.0 0.0 0.00 0.00 0.00 53 1022.7
20260508155508 18 68 0.0 0.0 0.00 0.00 0.00 51 1022.8
20260508155006 17 155 0.0 0.0 0.00 0.00 0.00 52 1022.8
20260508154506 18 237 0.0 0.0 0.00 0.00 0.00 51 1023.0
20260508154006 17 126 0.0 0.0 0.00 0.00 0.00 52 1023.0
20260508153506 17 112 0.0 0.0 0.00 0.00 0.00 54 1023.0
20260508153005 17 222 0.0 0.0 0.00 0.00 0.00 53 1023.0
20260508152505 17 122 0.0 0.0 0.00 0.00 0.00 53 1023.1
20260508152006 18 179 0.0 0.0 0.00 0.00 0.00 53 1023.1
20260508151603 17 105 0.0 0.0 0.00 0.00 0.00 55 1023.1
20260508151004 17 72 0.0 0.0 0.00 0.00 0.00 55 1023.1
20260508150502 17 127 0.0 0.0 0.00 0.00 0.00 57 1023.1
20260508150003 17 184 0.0 0.0 0.00 0.00 0.00 56 1023.1
20260508145600 17 156 0.0 0.0 0.00 0.00 0.00 57 1023.3
20260508145059 16 143 0.0 0.0 0.00 0.00 0.00 56 1023.4
20260508144600 17 163 0.0 0.0 0.00 0.00 0.00 56 1023.4
20260508144102 17 110 0.0 0.0 0.00 0.00 0.00 55 1023.4
20260508143600 17 159 0.0 0.0 0.00 0.00 0.00 54 1023.3
20260508143102 17 68 0.0 0.0 0.00 0.00 0.00 54 1023.4
20260508142556 17 16 0.0 0.0 0.00 0.00 0.00 57 1023.3
20260508142055 16 94 0.0 0.0 0.00 0.00 0.00 59 1023.4
20260508141555 16 58 0.0 0.0 0.00 0.00 0.00 61 1023.4
20260508141054 16 66 0.0 0.0 0.00 0.00 0.00 60 1023.4
20260508140555 16 360 0.0 0.0 0.00 0.00 0.00 60 1023.5
20260508140108 16 107 0.0 0.0 0.00 0.00 0.00 60 1023.4
20260508135554 16 79 0.0 0.0 0.00 0.00 0.00 58 1023.4
20260508135053 16 69 0.0 0.0 0.00 0.00 0.00 62 1023.5
20260508134609 16 47 0.0 0.0 0.00 0.00 0.00 65 1023.5
20260508134051 15 95 0.0 0.0 0.00 0.00 0.00 68 1023.5
20260508133549 15 304 0.0 0.0 0.00 0.00 0.00 71 1023.5
20260508133104 15 80 0.0 0.0 0.00 0.00 0.00 71 1023.5
20260508132549 15 85 0.0 0.0 0.00 0.00 0.00 74 1023.5
20260508132049 14 136 0.0 0.0 0.00 0.00 0.00 74 1023.5
20260508131549 13 13 0.0 0.0 0.00 0.00 0.00 83 1023.5
20260508131051 12 13 0.0 0.0 0.00 0.00 0.00 83 1023.5
20260508130550 12 13 0.0 0.0 0.00 0.00 0.00 84 1023.4
20260508130046 12 13 0.0 0.0 0.00 0.00 0.00 85 1023.4
20260508125546 12 13 0.0 0.0 0.00 0.00 0.00 87 1023.3
20260508125045 12 13 0.0 0.0 0.00 0.00 0.00 91 1023.3
20260508124545 11 13 0.0 0.0 0.00 0.00 0.00 93 1023.3
20260508124045 10 13 0.0 0.0 0.00 0.00 0.00 93 1023.2
20260508123544 10 13 0.0 0.0 0.00 0.00 0.00 93 1023.3
20260508123044 9 13 0.0 0.0 0.00 0.13 0.00 94 1023.2
20260508122543 9 13 0.0 0.0 0.00 0.13 0.00 95 1023.1
20260508122044 9 13 0.0 0.0 0.00 0.13 0.00 96 1023.1
20260508121544 8 13 0.0 0.0 0.00 0.13 0.00 96 1023.0
20260508121044 8 13 0.0 0.0 0.00 0.13 0.00 96 1023.0
20260508120543 8 13 0.0 0.0 0.00 0.13 0.00 96 1023.0
20260508120048 7 13 0.0 0.0 0.00 0.13 0.00 96 1023.0
20260508115542 7 13 0.0 0.0 0.00 0.13 0.00 96 1022.8
20260508115041 7 13 0.0 0.0 0.00 0.13 0.00 96 1022.9
20260508114541 6 13 0.0 0.0 0.00 0.13 0.00 96 1022.7
20260508114040 6 13 0.0 0.0 0.00 0.13 0.00 96 1022.5
20260508113540 6 13 0.0 0.0 0.00 0.13 0.00 96 1022.5
20260508113049 5 13 0.0 0.0 0.00 0.30 0.00 96 1022.3
20260508112539 5 13 0.0 0.0 0.00 0.30 0.00 96 1022.4
20260508112037 4 13 0.0 0.0 0.00 0.30 0.00 96 1022.1
20260508111537 4 13 0.0 0.0 0.00 0.30 0.00 96 1022.0
20260508111037 4 13 0.0 0.0 0.00 0.30 0.00 96 1022.0
20260508110536 4 4 0.0 0.0 0.00 0.30 0.00 96 1021.9
20260508110037 4 4 0.0 0.0 0.00 0.30 0.00 96 1021.8
20260508105536 4 4 0.0 0.0 0.00 0.30 0.00 96 1021.7
20260508105036 4 4 0.0 0.0 0.00 0.30 0.00 96 1021.7
20260508104534 4 4 0.0 0.0 0.00 0.30 0.00 96 1021.6
20260508104034 4 4 0.0 0.0 0.00 0.30 0.00 96 1021.4
20260508103533 4 4 0.0 0.0 0.00 0.30 0.00 96 1021.4
20260508103035 4 4 0.0 0.0 0.00 0.30 0.00 96 1021.2
20260508102533 4 4 0.0 0.0 0.00 0.30 0.00 96 1021.1
20260508102030 4 4 0.0 0.0 0.00 0.30 0.00 96 1021.1
20260508101535 4 316 0.0 0.0 0.00 0.30 0.00 96 1020.9
20260508101031 4 316 0.0 0.0 0.00 0.30 0.00 96 1020.8
20260508100530 5 316 0.0 0.0 0.00 0.30 0.00 96 1020.7
20260508100030 5 316 0.0 0.0 0.00 0.30 0.00 96 1020.7
20260508095534 5 316 0.0 0.0 0.00 0.30 0.00 96 1020.7
20260508095030 5 316 0.0 0.0 0.00 0.30 0.00 96 1020.6
20260508094529 5 319 0.0 0.0 0.00 0.30 0.00 96 1020.6
20260508094032 5 27 0.0 0.0 0.00 0.30 0.00 96 1020.7
20260508093528 5 27 0.0 0.0 0.00 0.30 0.00 96 1020.5
20260508093031 5 11 0.0 0.0 0.00 0.30 0.00 96 1020.5
20260508092527 5 11 0.0 0.0 0.00 0.30 0.00 96 1020.6
20260508092027 5 8 0.0 0.0 0.00 0.30 0.00 96 1020.5
20260508091540 5 7 0.0 0.0 0.00 0.30 0.00 96 1020.5
20260508091023 5 11 0.0 0.0 0.00 0.30 0.00 96 1020.5
20260508090524 5 11 0.0 0.0 0.00 0.30 0.00 96 1020.5
20260508090023 5 11 0.0 0.0 0.00 0.30 0.00 96 1020.5
20260508085524 5 11 0.0 0.0 0.00 0.30 0.00 96 1020.4
20260508085021 5 4 0.0 0.0 0.00 0.30 0.00 96 1020.3
20260508084521 5 4 0.0 0.0 0.00 0.30 0.00 96 1020.3
20260508084026 5 4 0.0 0.0 0.00 0.30 0.00 96 1020.3
20260508083521 5 4 0.0 0.0 0.00 0.36 0.00 96 1020.3
20260508083030 5 352 0.0 0.0 0.00 0.36 0.00 96 1020.2
20260508082520 5 352 0.0 0.0 0.00 0.36 0.00 96 1020.3
20260508082019 5 352 0.0 0.0 0.00 0.36 0.00 96 1020.2
20260508081520 5 352 0.0 0.0 0.00 0.36 0.00 96 1020.1
20260508081019 5 352 0.0 0.0 0.00 0.36 0.00 95 1020.1
20260508080519 5 352 0.0 0.0 0.00 0.36 0.00 95 1020.1
20260508080019 5 352 0.0 0.0 0.00 0.36 0.00 95 1020.0
20260508075518 5 352 0.0 0.0 0.00 0.36 0.00 95 1019.9
20260508075023 5 352 0.0 0.0 0.00 0.36 0.00 95 1019.9
20260508074519 5 352 0.0 0.0 0.00 0.36 0.00 95 1019.8
20260508074015 6 352 0.0 0.0 0.00 0.36 0.00 95 1019.8
20260508073516 6 352 0.0 0.0 0.00 0.36 0.00 95 1019.6
20260508073014 6 51 0.0 0.0 0.00 0.36 0.00 95 1019.6
20260508072517 6 250 0.0 0.0 0.00 0.36 0.00 95 1019.5
20260508072013 6 250 0.0 0.0 0.00 0.36 0.00 95 1019.5
20260508071514 6 250 0.0 0.0 0.00 0.36 0.00 95 1019.5
20260508071016 6 250 0.0 0.0 0.00 0.36 0.00 95 1019.6
20260508070514 6 250 0.0 0.0 0.00 0.36 0.00 95 1019.3
20260508070014 6 250 0.0 0.0 0.00 0.36 0.00 95 1019.5
20260508065513 6 250 0.0 0.0 0.00 0.36 0.00 95 1019.4
20260508065009 6 250 0.0 0.0 0.00 0.36 0.00 95 1019.2
20260508064516 6 250 0.0 0.0 0.00 0.36 0.00 95 1019.4
20260508064010 6 250 0.0 0.0 0.00 0.36 0.00 95 1019.4
20260508063512 6 250 0.0 0.0 0.00 0.36 0.00 95 1019.2
20260508063008 6 250 0.0 0.0 0.00 0.36 0.00 95 1019.2
20260508062511 6 250 0.0 0.0 0.00 0.36 0.00 95 1019.2
20260508062007 6 250 0.0 0.0 0.00 0.36 0.00 95 1019.1
20260508061507 7 250 0.0 0.0 0.00 0.36 0.00 95 1019.0
20260508061006 7 250 0.0 0.0 0.00 0.36 0.00 95 1019.0
20260508060506 7 250 0.0 0.0 0.00 0.36 0.00 95 1019.1
20260508060005 7 250 0.0 0.0 0.00 0.36 0.00 95 1019.2
20260508055505 7 250 0.0 0.0 0.00 0.36 0.00 95 1019.1
20260508055005 7 250 0.0 0.0 0.00 0.36 0.00 95 1019.1
20260508054505 7 250 0.0 0.0 0.00 0.36 0.00 95 1019.2
20260508054004 7 250 0.0 0.0 0.00 0.36 0.00 95 1019.1
20260508053505 7 250 0.0 0.0 0.00 0.53 0.00 94 1019.1
20260508053004 7 250 0.0 0.0 0.00 0.53 0.00 94 1019.2
20260508052502 7 250 0.0 0.0 0.00 0.53 0.00 94 1019.0
20260508052004 7 250 0.0 0.0 0.00 0.53 0.00 94 1018.9
20260508051501 7 250 0.0 0.0 0.00 0.53 0.00 94 1019.0
20260508051001 7 250 0.0 0.0 0.00 0.53 0.00 94 1018.9
20260508050501 7 250 0.0 0.0 0.00 0.53 0.00 94 1019.0
20260508050001 7 250 0.0 0.0 0.00 0.53 0.00 94 1018.9
20260508045559 7 250 0.0 0.0 0.00 0.53 0.00 94 1018.8
20260508045059 7 250 0.0 0.0 0.00 0.53 0.00 94 1018.8
20260508044559 7 250 0.0 0.0 0.00 0.53 0.00 94 1018.7
20260508044059 7 250 0.0 0.0 0.00 0.53 0.00 94 1018.7
20260508043557 8 250 0.0 0.0 0.00 0.53 0.00 94 1018.6
20260508043056 8 250 0.0 0.0 0.00 0.64 0.00 94 1018.7
20260508042556 8 250 0.0 0.0 0.00 0.64 0.00 93 1018.6
20260508042055 8 250 0.0 0.0 0.00 0.64 0.00 93 1018.5
20260508041555 8 248 0.0 0.0 0.00 0.64 0.00 93 1018.6
20260508040556 8 236 0.0 0.0 0.00 0.64 0.00 93 1018.6
20260508040056 8 236 0.0 0.0 0.00 0.64 0.00 93 1018.5
20260508035555 8 236 0.0 0.0 0.00 0.64 0.00 93 1018.6
20260508035055 8 242 0.0 0.0 0.00 0.64 0.00 93 1018.6
20260508034554 8 153 0.0 0.0 0.00 0.64 0.00 92 1018.6
20260508034053 8 153 0.0 0.0 0.00 0.64 0.00 92 1018.6
20260508033552 9 46 0.0 0.0 0.00 0.64 0.00 92 1018.5
20260508033054 9 183 0.0 0.0 0.00 0.64 0.00 92 1018.6
20260508032553 9 224 0.0 0.0 0.00 0.64 0.00 92 1018.5
20260508032054 9 322 0.0 0.0 0.00 0.64 0.00 93 1018.5
20260508031551 9 227 0.0 0.0 0.00 0.64 0.00 92 1018.5
20260508030549 9 353 0.0 0.0 0.00 0.64 0.00 92 1018.5
20260508030049 9 353 0.0 0.0 0.00 0.64 0.00 92 1018.6
20260508025547 9 30 0.0 0.0 0.00 0.64 0.00 92 1018.4
20260508025046 9 171 0.0 0.0 0.00 0.64 0.00 91 1018.4
20260508024546 10 336 0.0 0.0 0.00 0.64 0.00 91 1018.2
20260508024045 10 221 0.0 0.0 0.00 0.64 0.00 90 1018.3
20260508023545 10 221 0.0 0.0 0.00 0.64 0.00 90 1018.1
20260508023043 10 203 0.0 0.0 0.00 0.71 0.00 90 1018.0
20260508022542 10 203 0.0 0.0 0.00 0.71 0.00 90 1017.9
20260508022042 10 203 0.0 0.0 0.00 0.71 0.00 90 1017.7
20260508021548 10 203 0.0 0.0 0.00 0.71 0.00 89 1017.8
20260508020540 11 203 0.0 0.0 0.00 0.71 0.00 88 1017.8
20260508020039 11 202 0.0 0.0 0.00 0.71 0.00 87 1017.7
20260508015538 11 203 0.0 0.0 0.00 0.71 0.00 87 1017.5
20260508015037 11 202 0.0 0.0 0.00 0.71 0.00 87 1017.4
20260508014537 11 203 0.0 0.0 0.00 0.71 0.00 87 1017.2
20260508014038 11 210 0.0 0.0 0.00 0.71 0.00 86 1017.1
20260508013535 11 201 0.0 0.0 0.00 0.84 0.00 85 1017.1
20260508013032 12 201 0.0 0.0 0.00 0.84 0.00 84 1017.0
20260508012530 12 303 0.0 0.0 0.00 0.84 0.00 82 1016.9
20260508012029 12 303 0.0 0.0 0.00 0.84 0.00 80 1017.0
20260508011534 12 288 0.0 0.0 0.00 0.84 0.00 79 1016.7
20260508010531 13 172 0.0 0.0 0.00 0.84 0.00 80 1016.6
20260508010037 13 172 0.0 0.0 0.00 0.84 0.00 78 1016.6
20260508005530 13 172 0.0 0.0 0.00 0.84 0.00 78 1016.5
20260508005025 13 172 0.0 0.0 0.00 0.84 0.00 76 1016.6
20260508004523 14 195 0.0 0.0 0.00 0.84 0.00 73 1016.4
20260508004023 14 295 0.0 0.0 0.00 0.84 0.00 72 1016.3
20260508003522 14 2 0.0 0.0 0.00 1.14 0.00 74 1016.4
20260508003021 15 51 0.0 0.0 0.00 1.14 0.00 74 1016.3
20260508002519 15 345 0.0 0.0 0.00 1.14 0.00 72 1016.0
20260508002021 15 336 0.0 0.0 0.00 1.14 0.00 70 1016.0
20260508001516 16 358 0.0 0.0 0.00 1.14 0.00 67 1015.8
20260508000515 16 323 0.0 0.0 0.00 1.14 0.00 65 1015.5
20260508000012 16 270 0.0 0.0 0.00 1.14 0.00 64 1015.6
20260507235516 17 297 0.0 0.0 0.00 1.14 0.00 66 1015.4
20260507235013 17 40 0.0 0.0 0.00 1.14 0.00 65 1015.4
20260507234511 17 48 0.0 0.0 0.00 1.14 0.00 63 1015.5
20260507234013 17 148 0.0 0.0 0.00 1.14 0.00 63 1015.5
20260507233510 17 249 0.0 0.0 0.00 1.19 0.00 61 1015.5
20260507233113 17 238 0.0 0.0 0.00 1.19 0.00 62 1015.2
20260507232509 17 176 0.0 0.0 0.00 1.19 0.00 62 1015.2
20260507232011 18 147 0.0 0.0 0.00 1.19 0.00 61 1015.0
20260507231507 18 217 0.0 0.0 0.00 1.19 0.00 62 1015.0
20260507230509 18 304 0.0 0.0 0.00 1.19 0.00 61 1014.8
20260507230016 18 80 0.0 0.0 0.00 1.19 0.00 61 1014.9
20260507225508 18 84 0.0 0.0 0.00 1.19 0.00 60 1014.7
20260507225007 18 298 0.0 0.0 0.00 1.19 0.00 61 1014.7
20260507224508 19 240 0.0 0.0 0.00 1.19 0.00 62 1014.5
20260507224005 19 289 0.0 0.0 0.00 1.19 0.00 61 1014.5
20260507223506 20 276 0.0 0.0 0.00 1.22 0.00 60 1014.4
20260507223005 20 79 0.0 0.0 0.00 1.22 0.00 58 1014.2
20260507222505 20 234 0.0 0.0 0.00 1.22 0.00 60 1014.3
20260507222004 20 285 0.0 0.0 0.00 1.22 0.00 60 1014.0
20260507221504 21 252 0.0 0.0 0.00 1.22 0.00 58 1013.9
20260507220502 21 68 0.0 0.0 0.00 1.22 0.00 57 1013.7
20260507220003 22 127 0.0 0.0 0.00 1.22 0.00 56 1013.5
20260507215505 22 229 0.0 0.0 0.00 1.22 0.00 55 1013.4
20260507215003 22 292 0.0 0.0 0.00 1.22 0.00 57 1013.3
20260507214502 23 257 0.0 0.0 0.00 1.22 0.00 53 1013.2
20260507214102 23 222 0.0 0.0 0.00 1.22 0.00 51 1013.0
20260507213502 23 155 0.0 0.0 0.00 1.22 0.00 50 1012.9
20260507213001 23 275 0.0 0.0 0.00 1.22 0.00 50 1012.9
20260507212501 23 143 0.0 0.0 0.00 1.22 0.00 49 1012.8
20260507212001 23 86 0.0 0.0 0.00 1.22 0.00 49 1012.6
20260507211501 23 103 0.0 0.0 0.00 1.22 0.00 49 1012.8
20260507210504 23 178 0.0 0.0 0.00 1.22 0.00 49 1012.5